Year,Month,Day,Hour,Minute,Value (Times are PST for temperature in C)
2016,04,09,00,00,8.00
2016,04,09,00,01,8.00
2016,04,09,00,02,8.00
2016,04,09,00,03,8.00
2016,04,09,00,04,8.00
2016,04,09,00,05,8.00
2016,04,09,00,06,8.00
2016,04,09,00,07,7.90
2016,04,09,00,08,7.90
2016,04,09,00,09,7.90
2016,04,09,00,10,7.90
2016,04,09,00,11,7.90
2016,04,09,00,12,7.80
2016,04,09,00,13,7.80
2016,04,09,00,14,7.80
2016,04,09,00,15,7.80
2016,04,09,00,16,7.80
2016,04,09,00,17,7.70
2016,04,09,00,18,7.70
2016,04,09,00,19,7.70
2016,04,09,00,20,7.60
2016,04,09,00,21,7.60
2016,04,09,00,22,7.60
2016,04,09,00,23,7.50
2016,04,09,00,24,7.40
2016,04,09,00,25,7.40
2016,04,09,00,26,7.40
2016,04,09,00,27,7.40
2016,04,09,00,28,7.40
2016,04,09,00,29,7.40
2016,04,09,00,30,7.40
2016,04,09,00,31,7.40
2016,04,09,00,32,7.40
2016,04,09,00,33,7.50
2016,04,09,00,34,7.50
2016,04,09,00,35,7.50
2016,04,09,00,36,7.50
2016,04,09,00,37,7.60
2016,04,09,00,38,7.50
2016,04,09,00,39,7.50
2016,04,09,00,40,7.50
2016,04,09,00,41,7.40
2016,04,09,00,42,7.40
2016,04,09,00,43,7.40
2016,04,09,00,44,7.40
2016,04,09,00,45,7.40
2016,04,09,00,46,7.40
2016,04,09,00,47,7.40
2016,04,09,00,48,7.40
2016,04,09,00,49,7.40
2016,04,09,00,50,7.30
2016,04,09,00,51,7.30
2016,04,09,00,52,7.30
2016,04,09,00,53,7.30
2016,04,09,00,54,7.30
2016,04,09,00,55,7.30
2016,04,09,00,56,7.30
2016,04,09,00,57,7.30
2016,04,09,00,58,7.30
2016,04,09,00,59,7.30
2016,04,09,01,00,7.30
2016,04,09,01,01,7.30
2016,04,09,01,02,7.30
2016,04,09,01,03,7.30
2016,04,09,01,04,7.30
2016,04,09,01,05,7.30
2016,04,09,01,06,7.30
2016,04,09,01,07,7.30
2016,04,09,01,08,7.30
2016,04,09,01,09,7.20
2016,04,09,01,10,7.20
2016,04,09,01,11,7.20
2016,04,09,01,12,7.20
2016,04,09,01,13,7.20
2016,04,09,01,14,7.20
2016,04,09,01,15,7.30
2016,04,09,01,16,7.30
2016,04,09,01,17,7.30
2016,04,09,01,18,7.30
2016,04,09,01,19,7.30
2016,04,09,01,20,7.30
2016,04,09,01,21,7.30
2016,04,09,01,22,7.30
2016,04,09,01,23,7.30
2016,04,09,01,24,7.30
2016,04,09,01,25,7.20
2016,04,09,01,26,7.20
2016,04,09,01,27,7.20
2016,04,09,01,28,7.20
2016,04,09,01,29,7.20
2016,04,09,01,30,7.10
2016,04,09,01,31,7.10
2016,04,09,01,32,7.10
2016,04,09,01,33,7.10
2016,04,09,01,34,7.10
2016,04,09,01,35,7.10
2016,04,09,01,36,7.10
2016,04,09,01,37,7.00
2016,04,09,01,38,7.00
2016,04,09,01,39,7.00
2016,04,09,01,40,7.00
2016,04,09,01,41,7.00
2016,04,09,01,42,7.00
2016,04,09,01,43,7.00
2016,04,09,01,44,6.90
2016,04,09,01,45,6.90
2016,04,09,01,46,6.90
2016,04,09,01,47,6.90
2016,04,09,01,48,7.00
2016,04,09,01,49,7.00
2016,04,09,01,50,7.00
2016,04,09,01,51,7.00
2016,04,09,01,52,6.90
2016,04,09,01,53,6.90
2016,04,09,01,54,6.90
2016,04,09,01,55,6.90
2016,04,09,01,56,6.90
2016,04,09,01,57,6.90
2016,04,09,01,58,6.90
2016,04,09,01,59,6.80
2016,04,09,02,00,6.80
2016,04,09,02,01,6.70
2016,04,09,02,02,6.70
2016,04,09,02,03,6.70
2016,04,09,02,04,6.70
2016,04,09,02,05,6.60
2016,04,09,02,06,6.60
2016,04,09,02,07,6.50
2016,04,09,02,08,6.50
2016,04,09,02,09,6.50
2016,04,09,02,10,6.40
2016,04,09,02,11,6.40
2016,04,09,02,12,6.30
2016,04,09,02,13,6.30
2016,04,09,02,14,6.30
2016,04,09,02,15,6.30
2016,04,09,02,16,6.30
2016,04,09,02,17,6.20
2016,04,09,02,18,6.20
2016,04,09,02,19,6.20
2016,04,09,02,20,6.20
2016,04,09,02,21,6.20
2016,04,09,02,22,6.20
2016,04,09,02,23,6.10
2016,04,09,02,24,6.10
2016,04,09,02,25,6.10
2016,04,09,02,26,6.10
2016,04,09,02,27,6.00
2016,04,09,02,28,6.00
2016,04,09,02,29,5.90
2016,04,09,02,30,5.90
2016,04,09,02,31,5.90
2016,04,09,02,32,5.90
2016,04,09,02,33,5.90
2016,04,09,02,34,5.90
2016,04,09,02,35,5.80
2016,04,09,02,36,5.90
2016,04,09,02,37,5.90
2016,04,09,02,38,5.90
2016,04,09,02,39,5.90
2016,04,09,02,40,5.90
2016,04,09,02,41,5.90
2016,04,09,02,42,6.00
2016,04,09,02,43,6.00
2016,04,09,02,44,6.10
2016,04,09,02,45,6.10
2016,04,09,02,46,6.10
2016,04,09,02,47,6.20
2016,04,09,02,48,6.10
2016,04,09,02,49,6.10
2016,04,09,02,50,6.10
2016,04,09,02,51,6.10
2016,04,09,02,52,6.10
2016,04,09,02,53,6.10
2016,04,09,02,54,6.00
2016,04,09,02,55,6.00
2016,04,09,02,56,6.00
2016,04,09,02,57,6.00
2016,04,09,02,58,5.90
2016,04,09,02,59,5.90
2016,04,09,03,00,5.90
2016,04,09,03,01,5.90
2016,04,09,03,02,5.90
2016,04,09,03,03,5.90
2016,04,09,03,04,5.80
2016,04,09,03,05,5.80
2016,04,09,03,06,5.80
2016,04,09,03,07,5.80
2016,04,09,03,08,5.80
2016,04,09,03,09,5.80
2016,04,09,03,10,5.90
2016,04,09,03,11,5.90
2016,04,09,03,12,6.00
2016,04,09,03,13,6.10
2016,04,09,03,14,6.10
2016,04,09,03,15,6.10
2016,04,09,03,16,6.10
2016,04,09,03,17,6.10
2016,04,09,03,18,6.10
2016,04,09,03,19,6.00
2016,04,09,03,20,6.00
2016,04,09,03,21,6.00
2016,04,09,03,22,5.90
2016,04,09,03,23,5.90
2016,04,09,03,24,5.90
2016,04,09,03,25,5.90
2016,04,09,03,26,5.90
2016,04,09,03,27,5.90
2016,04,09,03,28,5.90
2016,04,09,03,29,5.90
2016,04,09,03,30,5.90
2016,04,09,03,31,6.00
2016,04,09,03,32,6.00
2016,04,09,03,33,6.00
2016,04,09,03,34,6.00
2016,04,09,03,35,6.10
2016,04,09,03,36,6.20
2016,04,09,03,37,6.20
2016,04,09,03,38,6.30
2016,04,09,03,39,6.30
2016,04,09,03,40,6.30
2016,04,09,03,41,6.40
2016,04,09,03,42,6.30
2016,04,09,03,43,6.30
2016,04,09,03,44,6.30
2016,04,09,03,45,6.30
2016,04,09,03,46,6.30
2016,04,09,03,47,6.30
2016,04,09,03,48,6.30
2016,04,09,03,49,6.30
2016,04,09,03,50,6.20
2016,04,09,03,51,6.20
2016,04,09,03,52,6.20
2016,04,09,03,53,6.10
2016,04,09,03,54,6.10
2016,04,09,03,55,6.10
2016,04,09,03,56,6.00
2016,04,09,03,57,6.00
2016,04,09,03,58,6.00
2016,04,09,03,59,5.90
2016,04,09,04,00,5.90
2016,04,09,04,01,5.80
2016,04,09,04,02,5.80
2016,04,09,04,03,5.80
2016,04,09,04,04,5.70
2016,04,09,04,05,5.70
2016,04,09,04,06,5.70
2016,04,09,04,07,5.60
2016,04,09,04,08,5.60
2016,04,09,04,09,5.50
2016,04,09,04,10,5.50
2016,04,09,04,11,5.40
2016,04,09,04,12,5.40
2016,04,09,04,13,5.40
2016,04,09,04,14,5.40
2016,04,09,04,15,5.30
2016,04,09,04,16,5.30
2016,04,09,04,17,5.30
2016,04,09,04,18,5.30
2016,04,09,04,19,5.30
2016,04,09,04,20,5.20
2016,04,09,04,21,5.20
2016,04,09,04,22,5.20
2016,04,09,04,23,5.20
2016,04,09,04,24,5.20
2016,04,09,04,25,5.20
2016,04,09,04,26,5.20
2016,04,09,04,27,5.20
2016,04,09,04,28,5.20
2016,04,09,04,29,5.20
2016,04,09,04,30,5.10
2016,04,09,04,31,5.10
2016,04,09,04,32,5.10
2016,04,09,04,33,5.10
2016,04,09,04,34,5.10
2016,04,09,04,35,5.10
2016,04,09,04,36,5.10
2016,04,09,04,37,5.10
2016,04,09,04,38,5.20
2016,04,09,04,39,5.30
2016,04,09,04,40,5.30
2016,04,09,04,41,5.40
2016,04,09,04,42,5.40
2016,04,09,04,43,5.40
2016,04,09,04,44,5.40
2016,04,09,04,45,5.40
2016,04,09,04,46,5.40
2016,04,09,04,47,5.50
2016,04,09,04,48,5.50
2016,04,09,04,49,5.50
2016,04,09,04,50,5.50
2016,04,09,04,51,5.50
2016,04,09,04,52,5.50
2016,04,09,04,53,5.50
2016,04,09,04,54,5.50
2016,04,09,04,55,5.50
2016,04,09,04,56,5.50
2016,04,09,04,57,5.40
2016,04,09,04,58,5.40
2016,04,09,04,59,5.40
2016,04,09,05,00,5.40
2016,04,09,05,01,5.40
2016,04,09,05,02,5.40
2016,04,09,05,03,5.40
2016,04,09,05,04,5.40
2016,04,09,05,05,5.40
2016,04,09,05,06,5.40
2016,04,09,05,07,5.40
2016,04,09,05,08,5.40
2016,04,09,05,09,5.40
2016,04,09,05,10,5.50
2016,04,09,05,11,5.50
2016,04,09,05,12,5.40
2016,04,09,05,13,5.40
2016,04,09,05,14,5.40
2016,04,09,05,15,5.40
2016,04,09,05,16,5.40
2016,04,09,05,17,5.40
2016,04,09,05,18,5.40
2016,04,09,05,19,5.30
2016,04,09,05,20,5.30
2016,04,09,05,21,5.40
2016,04,09,05,22,5.40
2016,04,09,05,23,5.40
2016,04,09,05,24,5.50
2016,04,09,05,25,5.50
2016,04,09,05,26,5.50
2016,04,09,05,27,5.50
2016,04,09,05,28,5.50
2016,04,09,05,29,5.50
2016,04,09,05,30,5.40
2016,04,09,05,31,5.40
2016,04,09,05,32,5.40
2016,04,09,05,33,5.40
2016,04,09,05,34,5.40
2016,04,09,05,35,5.40
2016,04,09,05,36,5.40
2016,04,09,05,37,5.50
2016,04,09,05,38,5.60
2016,04,09,05,39,5.60
2016,04,09,05,40,5.60
2016,04,09,05,41,5.70
2016,04,09,05,42,5.70
2016,04,09,05,43,5.70
2016,04,09,05,44,5.80
2016,04,09,05,45,5.80
2016,04,09,05,46,5.80
2016,04,09,05,47,5.90
2016,04,09,05,48,6.00
2016,04,09,05,49,6.00
2016,04,09,05,50,6.10
2016,04,09,05,51,6.10
2016,04,09,05,52,6.20
2016,04,09,05,53,6.20
2016,04,09,05,54,6.10
2016,04,09,05,55,6.10
2016,04,09,05,56,6.10
2016,04,09,05,57,6.00
2016,04,09,05,58,6.00
2016,04,09,05,59,5.90
2016,04,09,06,00,5.90
2016,04,09,06,01,5.80
2016,04,09,06,02,5.80
2016,04,09,06,03,5.70
2016,04,09,06,04,5.70
2016,04,09,06,05,5.70
2016,04,09,06,06,5.60
2016,04,09,06,07,5.60
2016,04,09,06,08,5.50
2016,04,09,06,09,5.50
2016,04,09,06,10,5.40
2016,04,09,06,11,5.40
2016,04,09,06,12,5.40
2016,04,09,06,13,5.30
2016,04,09,06,14,5.30
2016,04,09,06,15,5.20
2016,04,09,06,16,5.20
2016,04,09,06,17,5.20
2016,04,09,06,18,5.10
2016,04,09,06,19,5.10
2016,04,09,06,20,5.00
2016,04,09,06,21,5.00
2016,04,09,06,22,5.00
2016,04,09,06,23,4.90
2016,04,09,06,24,4.90
2016,04,09,06,25,4.90
2016,04,09,06,26,4.80
2016,04,09,06,27,4.80
2016,04,09,06,28,4.80
2016,04,09,06,29,4.80
2016,04,09,06,30,4.70
2016,04,09,06,31,4.70
2016,04,09,06,32,4.70
2016,04,09,06,33,4.60
2016,04,09,06,34,4.60
2016,04,09,06,35,4.60
2016,04,09,06,36,4.50
2016,04,09,06,37,4.50
2016,04,09,06,38,4.40
2016,04,09,06,39,4.40
2016,04,09,06,40,4.40
2016,04,09,06,41,4.40
2016,04,09,06,42,4.40
2016,04,09,06,43,4.40
2016,04,09,06,44,4.40
2016,04,09,06,45,4.40
2016,04,09,06,46,4.40
2016,04,09,06,47,4.40
2016,04,09,06,48,4.40
2016,04,09,06,49,4.40
2016,04,09,06,50,4.40
2016,04,09,06,51,4.40
2016,04,09,06,52,4.40
2016,04,09,06,53,4.40
2016,04,09,06,54,4.40
2016,04,09,06,55,4.50
2016,04,09,06,56,4.50
2016,04,09,06,57,4.60
2016,04,09,06,58,4.60
2016,04,09,06,59,4.60
2016,04,09,07,00,4.60
2016,04,09,07,01,4.70
2016,04,09,07,02,4.70
2016,04,09,07,03,4.70
2016,04,09,07,04,4.80
2016,04,09,07,05,4.80
2016,04,09,07,06,4.80
2016,04,09,07,07,4.80
2016,04,09,07,08,4.90
2016,04,09,07,09,4.90
2016,04,09,07,10,4.90
2016,04,09,07,11,4.90
2016,04,09,07,12,4.90
2016,04,09,07,13,4.90
2016,04,09,07,14,4.90
2016,04,09,07,15,4.90
2016,04,09,07,16,4.90
2016,04,09,07,17,4.90
2016,04,09,07,18,4.90
2016,04,09,07,19,4.90
2016,04,09,07,20,4.90
2016,04,09,07,21,4.90
2016,04,09,07,22,4.90
2016,04,09,07,23,4.90
2016,04,09,07,24,4.90
2016,04,09,07,25,4.90
2016,04,09,07,26,4.90
2016,04,09,07,27,4.90
2016,04,09,07,28,5.00
2016,04,09,07,29,5.00
2016,04,09,07,30,5.00
2016,04,09,07,31,5.10
2016,04,09,07,32,5.10
2016,04,09,07,33,5.10
2016,04,09,07,34,5.20
2016,04,09,07,35,5.20
2016,04,09,07,36,5.20
2016,04,09,07,37,5.30
2016,04,09,07,38,5.30
2016,04,09,07,39,5.30
2016,04,09,07,40,5.30
2016,04,09,07,41,5.40
2016,04,09,07,42,5.40
2016,04,09,07,43,5.50
2016,04,09,07,44,5.50
2016,04,09,07,45,5.60
2016,04,09,07,46,5.70
2016,04,09,07,47,5.70
2016,04,09,07,48,5.80
2016,04,09,07,49,5.80
2016,04,09,07,50,5.90
2016,04,09,07,51,6.00
2016,04,09,07,52,6.00
2016,04,09,07,53,6.00
2016,04,09,07,54,6.10
2016,04,09,07,55,6.10
2016,04,09,07,56,6.20
2016,04,09,07,57,6.20
2016,04,09,07,58,6.30
2016,04,09,07,59,6.30
2016,04,09,08,00,6.30
2016,04,09,08,01,6.40
2016,04,09,08,02,6.40
2016,04,09,08,03,6.50
2016,04,09,08,04,6.60
2016,04,09,08,05,6.60
2016,04,09,08,06,6.70
2016,04,09,08,07,6.80
2016,04,09,08,08,6.80
2016,04,09,08,09,6.90
2016,04,09,08,10,7.00
2016,04,09,08,11,7.10
2016,04,09,08,12,7.10
2016,04,09,08,13,7.20
2016,04,09,08,14,7.20
2016,04,09,08,15,7.30
2016,04,09,08,16,7.40
2016,04,09,08,17,7.40
2016,04,09,08,18,7.50
2016,04,09,08,19,7.50
2016,04,09,08,20,7.60
2016,04,09,08,21,7.60
2016,04,09,08,22,7.70
2016,04,09,08,23,7.70
2016,04,09,08,24,7.80
2016,04,09,08,25,7.80
2016,04,09,08,26,7.90
2016,04,09,08,27,8.10
2016,04,09,08,28,8.20
2016,04,09,08,29,8.30
2016,04,09,08,30,8.40
2016,04,09,08,31,8.50
2016,04,09,08,32,8.60
2016,04,09,08,33,8.70
2016,04,09,08,34,8.80
2016,04,09,08,35,8.90
2016,04,09,08,36,9.00
2016,04,09,08,37,9.10
2016,04,09,08,38,9.20
2016,04,09,08,39,9.30
2016,04,09,08,40,9.30
2016,04,09,08,41,9.40
2016,04,09,08,42,9.40
2016,04,09,08,43,9.50
2016,04,09,08,44,9.50
2016,04,09,08,45,9.60
2016,04,09,08,46,9.60
2016,04,09,08,47,9.60
2016,04,09,08,48,9.70
2016,04,09,08,49,9.70
2016,04,09,08,50,9.70
2016,04,09,08,51,9.70
2016,04,09,08,52,9.70
2016,04,09,08,53,9.80
2016,04,09,08,54,9.80
2016,04,09,08,55,9.80
2016,04,09,08,56,9.90
2016,04,09,08,57,9.90
2016,04,09,08,58,10.00
2016,04,09,08,59,10.00
2016,04,09,09,00,10.10
2016,04,09,09,01,10.10
2016,04,09,09,02,10.20
2016,04,09,09,03,10.20
2016,04,09,09,04,10.20
2016,04,09,09,05,10.20
2016,04,09,09,06,10.30
2016,04,09,09,07,10.40
2016,04,09,09,08,10.40
2016,04,09,09,09,10.50
2016,04,09,09,10,10.50
2016,04,09,09,11,10.50
2016,04,09,09,12,10.60
2016,04,09,09,13,10.50
2016,04,09,09,14,10.50
2016,04,09,09,15,10.50
2016,04,09,09,16,10.50
2016,04,09,09,17,10.50
2016,04,09,09,18,10.60
2016,04,09,09,19,10.60
2016,04,09,09,20,10.60
2016,04,09,09,21,10.70
2016,04,09,09,22,10.80
2016,04,09,09,23,10.80
2016,04,09,09,24,10.90
2016,04,09,09,25,10.90
2016,04,09,09,26,10.90
2016,04,09,09,27,10.90
2016,04,09,09,28,10.90
2016,04,09,09,29,10.90
2016,04,09,09,30,10.90
2016,04,09,09,31,10.90
2016,04,09,09,32,10.90
2016,04,09,09,33,10.90
2016,04,09,09,34,10.90
2016,04,09,09,35,10.90
2016,04,09,09,36,11.00
2016,04,09,09,37,11.10
2016,04,09,09,38,11.10
2016,04,09,09,39,11.20
2016,04,09,09,40,11.20
2016,04,09,09,41,11.20
2016,04,09,09,42,11.30
2016,04,09,09,43,11.30
2016,04,09,09,44,11.40
2016,04,09,09,45,11.40
2016,04,09,09,46,11.40
2016,04,09,09,47,11.50
2016,04,09,09,48,11.50
2016,04,09,09,49,11.40
2016,04,09,09,50,11.30
2016,04,09,09,51,11.40
2016,04,09,09,52,11.40
2016,04,09,09,53,11.50
2016,04,09,09,54,11.50
2016,04,09,09,55,11.60
2016,04,09,09,56,11.70
2016,04,09,09,57,11.70
2016,04,09,09,58,11.70
2016,04,09,09,59,11.80
2016,04,09,10,00,11.90
2016,04,09,10,01,11.90
2016,04,09,10,02,12.00
2016,04,09,10,03,12.00
2016,04,09,10,04,12.10
2016,04,09,10,05,12.10
2016,04,09,10,06,12.10
2016,04,09,10,07,12.10
2016,04,09,10,08,12.10
2016,04,09,10,09,12.10
2016,04,09,10,10,12.10
2016,04,09,10,11,12.10
2016,04,09,10,12,12.00
2016,04,09,10,13,12.00
2016,04,09,10,14,11.90
2016,04,09,10,15,12.00
2016,04,09,10,16,12.00
2016,04,09,10,17,12.00
2016,04,09,10,18,12.00
2016,04,09,10,19,11.90
2016,04,09,10,20,12.00
2016,04,09,10,21,12.00
2016,04,09,10,22,12.00
2016,04,09,10,23,12.10
2016,04,09,10,24,12.10
2016,04,09,10,25,12.10
2016,04,09,10,26,12.10
2016,04,09,10,27,12.20
2016,04,09,10,28,12.20
2016,04,09,10,29,12.10
2016,04,09,10,30,12.10
2016,04,09,10,31,12.00
2016,04,09,10,32,12.00
2016,04,09,10,33,12.10
2016,04,09,10,34,12.10
2016,04,09,10,35,12.10
2016,04,09,10,36,12.20
2016,04,09,10,37,12.30
2016,04,09,10,38,12.40
2016,04,09,10,39,12.50
2016,04,09,10,40,12.50
2016,04,09,10,41,12.50
2016,04,09,10,42,12.40
2016,04,09,10,43,12.40
2016,04,09,10,44,12.40
2016,04,09,10,45,12.40
2016,04,09,10,46,12.50
2016,04,09,10,47,12.50
2016,04,09,10,48,12.60
2016,04,09,10,49,12.60
2016,04,09,10,50,12.60
2016,04,09,10,51,12.60
2016,04,09,10,52,12.60
2016,04,09,10,53,12.60
2016,04,09,10,54,12.60
2016,04,09,10,55,12.80
2016,04,09,10,56,12.80
2016,04,09,10,57,12.90
2016,04,09,10,58,12.90
2016,04,09,10,59,13.00
2016,04,09,11,00,13.00
2016,04,09,11,01,13.10
2016,04,09,11,02,13.10
2016,04,09,11,03,13.10
2016,04,09,11,04,13.10
2016,04,09,11,05,13.10
2016,04,09,11,06,13.10
2016,04,09,11,07,13.10
2016,04,09,11,08,13.10
2016,04,09,11,09,13.20
2016,04,09,11,10,13.20
2016,04,09,11,11,13.20
2016,04,09,11,12,13.30
2016,04,09,11,13,13.30
2016,04,09,11,14,13.40
2016,04,09,11,15,13.50
2016,04,09,11,16,13.60
2016,04,09,11,17,13.60
2016,04,09,11,18,13.70
2016,04,09,11,19,13.80
2016,04,09,11,20,13.80
2016,04,09,11,21,13.80
2016,04,09,11,22,13.80
2016,04,09,11,23,13.70
2016,04,09,11,24,13.60
2016,04,09,11,25,13.50
2016,04,09,11,26,13.50
2016,04,09,11,27,13.40
2016,04,09,11,28,13.40
2016,04,09,11,29,13.30
2016,04,09,11,30,13.30
2016,04,09,11,31,13.30
2016,04,09,11,32,13.20
2016,04,09,11,33,13.20
2016,04,09,11,34,13.10
2016,04,09,11,35,13.20
2016,04,09,11,36,13.20
2016,04,09,11,37,13.20
2016,04,09,11,38,13.20
2016,04,09,11,39,13.30
2016,04,09,11,40,13.30
2016,04,09,11,41,13.30
2016,04,09,11,42,13.40
2016,04,09,11,43,13.40
2016,04,09,11,44,13.50
2016,04,09,11,45,13.50
2016,04,09,11,46,13.50
2016,04,09,11,47,13.40
2016,04,09,11,48,13.50
2016,04,09,11,49,13.50
2016,04,09,11,50,13.50
2016,04,09,11,51,13.50
2016,04,09,11,52,13.50
2016,04,09,11,53,13.50
2016,04,09,11,54,13.60
2016,04,09,11,55,13.50
2016,04,09,11,56,13.50
2016,04,09,11,57,13.50
2016,04,09,11,58,13.40
2016,04,09,11,59,13.40
2016,04,09,12,00,13.40
2016,04,09,12,01,13.50
2016,04,09,12,02,13.60
2016,04,09,12,03,13.60
2016,04,09,12,04,13.60
2016,04,09,12,05,13.50
2016,04,09,12,06,13.50
2016,04,09,12,07,13.50
2016,04,09,12,08,13.50
2016,04,09,12,09,13.60
2016,04,09,12,10,13.60
2016,04,09,12,11,13.60
2016,04,09,12,12,13.70
2016,04,09,12,13,13.70
2016,04,09,12,14,13.70
2016,04,09,12,15,13.70
2016,04,09,12,16,13.80
2016,04,09,12,17,13.80
2016,04,09,12,18,13.80
2016,04,09,12,19,13.70
2016,04,09,12,20,13.70
2016,04,09,12,21,13.70
2016,04,09,12,22,13.80
2016,04,09,12,23,13.80
2016,04,09,12,24,13.90
2016,04,09,12,25,13.80
2016,04,09,12,26,13.80
2016,04,09,12,27,13.80
2016,04,09,12,28,13.80
2016,04,09,12,29,13.90
2016,04,09,12,30,14.00
2016,04,09,12,31,14.00
2016,04,09,12,32,14.10
2016,04,09,12,33,14.10
2016,04,09,12,34,14.20
2016,04,09,12,35,14.20
2016,04,09,12,36,14.20
2016,04,09,12,37,14.20
2016,04,09,12,38,14.20
2016,04,09,12,39,14.20
2016,04,09,12,40,14.10
2016,04,09,12,41,14.10
2016,04,09,12,42,14.10
2016,04,09,12,43,14.10
2016,04,09,12,44,14.10
2016,04,09,12,45,14.10
2016,04,09,12,46,14.10
2016,04,09,12,47,14.10
2016,04,09,12,48,14.10
2016,04,09,12,49,14.10
2016,04,09,12,50,14.10
2016,04,09,12,51,14.10
2016,04,09,12,52,14.20
2016,04,09,12,53,14.20
2016,04,09,12,54,14.30
2016,04,09,12,55,14.30
2016,04,09,12,56,14.40
2016,04,09,12,57,14.50
2016,04,09,12,58,14.60
2016,04,09,12,59,14.70
2016,04,09,13,00,14.80
2016,04,09,13,01,15.00
2016,04,09,13,02,14.90
2016,04,09,13,03,14.90
2016,04,09,13,04,14.90
2016,04,09,13,05,14.80
2016,04,09,13,06,14.80
2016,04,09,13,07,14.80
2016,04,09,13,08,14.90
2016,04,09,13,09,14.90
2016,04,09,13,10,14.90
2016,04,09,13,11,15.00
2016,04,09,13,12,15.00
2016,04,09,13,13,15.00
2016,04,09,13,14,15.00
2016,04,09,13,15,15.00
2016,04,09,13,16,15.10
2016,04,09,13,17,15.00
2016,04,09,13,18,14.90
2016,04,09,13,19,14.80
2016,04,09,13,20,14.70
2016,04,09,13,21,14.60
2016,04,09,13,22,14.50
2016,04,09,13,23,14.40
2016,04,09,13,24,14.40
2016,04,09,13,25,14.40
2016,04,09,13,26,14.40
2016,04,09,13,27,14.40
2016,04,09,13,28,14.50
2016,04,09,13,29,14.50
2016,04,09,13,30,14.60
2016,04,09,13,31,14.70
2016,04,09,13,32,14.70
2016,04,09,13,33,14.80
2016,04,09,13,34,14.90
2016,04,09,13,35,14.90
2016,04,09,13,36,14.90
2016,04,09,13,37,14.90
2016,04,09,13,38,14.90
2016,04,09,13,39,15.00
2016,04,09,13,40,15.00
2016,04,09,13,41,15.10
2016,04,09,13,42,15.20
2016,04,09,13,43,15.40
2016,04,09,13,44,15.40
2016,04,09,13,45,15.50
2016,04,09,13,46,15.50
2016,04,09,13,47,15.50
2016,04,09,13,48,15.50
2016,04,09,13,49,15.60
2016,04,09,13,50,15.60
2016,04,09,13,51,15.70
2016,04,09,13,52,15.70
2016,04,09,13,53,15.60
2016,04,09,13,54,15.60
2016,04,09,13,55,15.70
2016,04,09,13,56,15.70
2016,04,09,13,57,15.70
2016,04,09,13,58,15.70
2016,04,09,13,59,15.70
2016,04,09,14,00,15.70
2016,04,09,14,01,15.80
2016,04,09,14,02,15.80
2016,04,09,14,03,15.90
2016,04,09,14,04,16.00
2016,04,09,14,05,16.10
2016,04,09,14,06,16.10
2016,04,09,14,07,16.10
2016,04,09,14,08,16.10
2016,04,09,14,09,16.10
2016,04,09,14,10,16.10
2016,04,09,14,11,16.10
2016,04,09,14,12,16.10
2016,04,09,14,13,16.10
2016,04,09,14,14,16.10
2016,04,09,14,15,16.20
2016,04,09,14,16,16.30
2016,04,09,14,17,16.30
2016,04,09,14,18,16.30
2016,04,09,14,19,16.40
2016,04,09,14,20,16.40
2016,04,09,14,21,16.40
2016,04,09,14,22,16.50
2016,04,09,14,23,16.50
2016,04,09,14,24,16.50
2016,04,09,14,25,16.40
2016,04,09,14,26,16.40
2016,04,09,14,27,16.40
2016,04,09,14,28,16.40
2016,04,09,14,29,16.40
2016,04,09,14,30,16.30
2016,04,09,14,31,16.30
2016,04,09,14,32,16.30
2016,04,09,14,33,16.30
2016,04,09,14,34,16.40
2016,04,09,14,35,16.50
2016,04,09,14,36,16.60
2016,04,09,14,37,16.60
2016,04,09,14,38,16.70
2016,04,09,14,39,16.70
2016,04,09,14,40,16.70
2016,04,09,14,41,16.60
2016,04,09,14,42,16.50
2016,04,09,14,43,16.40
2016,04,09,14,44,16.50
2016,04,09,14,45,16.50
2016,04,09,14,46,16.60
2016,04,09,14,47,16.70
2016,04,09,14,48,16.80
2016,04,09,14,49,16.80
2016,04,09,14,50,17.00
2016,04,09,14,51,17.00
2016,04,09,14,52,17.00
2016,04,09,14,53,16.90
2016,04,09,14,54,16.80
2016,04,09,14,55,16.80
2016,04,09,14,56,16.80
2016,04,09,14,57,16.80
2016,04,09,14,58,16.80
2016,04,09,14,59,16.80
2016,04,09,15,00,16.80
2016,04,09,15,01,16.90
2016,04,09,15,02,16.90
2016,04,09,15,03,17.00
2016,04,09,15,04,17.10
2016,04,09,15,05,17.10
2016,04,09,15,06,17.20
2016,04,09,15,07,17.30
2016,04,09,15,08,17.30
2016,04,09,15,09,17.30
2016,04,09,15,10,17.30
2016,04,09,15,11,17.20
2016,04,09,15,12,17.10
2016,04,09,15,13,17.00
2016,04,09,15,14,17.00
2016,04,09,15,15,17.10
2016,04,09,15,16,17.10
2016,04,09,15,17,17.20
2016,04,09,15,18,17.20
2016,04,09,15,19,17.10
2016,04,09,15,20,17.10
2016,04,09,15,21,17.20
2016,04,09,15,22,17.30
2016,04,09,15,23,17.30
2016,04,09,15,24,17.40
2016,04,09,15,25,17.50
2016,04,09,15,26,17.40
2016,04,09,15,27,17.40
2016,04,09,15,28,17.40
2016,04,09,15,29,17.40
2016,04,09,15,30,17.40
2016,04,09,15,31,17.30
2016,04,09,15,32,17.20
2016,04,09,15,33,17.10
2016,04,09,15,34,17.10
2016,04,09,15,35,17.10
2016,04,09,15,36,17.20
2016,04,09,15,37,17.30
2016,04,09,15,38,17.30
2016,04,09,15,39,17.40
2016,04,09,15,40,17.40
2016,04,09,15,41,17.40
2016,04,09,15,42,17.30
2016,04,09,15,43,17.20
2016,04,09,15,44,17.20
2016,04,09,15,45,17.20
2016,04,09,15,46,17.20
2016,04,09,15,47,17.30
2016,04,09,15,48,17.30
2016,04,09,15,49,17.30
2016,04,09,15,50,17.40
2016,04,09,15,51,17.40
2016,04,09,15,52,17.40
2016,04,09,15,53,17.30
2016,04,09,15,54,17.30
2016,04,09,15,55,17.30
2016,04,09,15,56,17.30
2016,04,09,15,57,17.40
2016,04,09,15,58,17.50
2016,04,09,15,59,17.50
2016,04,09,16,00,17.60
2016,04,09,16,01,17.50
2016,04,09,16,02,17.50
2016,04,09,16,03,17.40
2016,04,09,16,04,17.40
2016,04,09,16,05,17.30
2016,04,09,16,06,17.30
2016,04,09,16,07,17.30
2016,04,09,16,08,17.30
2016,04,09,16,09,17.30
2016,04,09,16,10,17.30
2016,04,09,16,11,17.20
2016,04,09,16,12,17.20
2016,04,09,16,13,17.30
2016,04,09,16,14,17.40
2016,04,09,16,15,17.40
2016,04,09,16,16,17.50
2016,04,09,16,17,17.50
2016,04,09,16,18,17.60
2016,04,09,16,19,17.60
2016,04,09,16,20,17.60
2016,04,09,16,21,17.60
2016,04,09,16,22,17.60
2016,04,09,16,23,17.70
2016,04,09,16,24,17.80
2016,04,09,16,25,17.80
2016,04,09,16,26,17.90
2016,04,09,16,27,17.90
2016,04,09,16,28,17.90
2016,04,09,16,29,18.00
2016,04,09,16,30,18.00
2016,04,09,16,31,17.90
2016,04,09,16,32,17.80
2016,04,09,16,33,17.80
2016,04,09,16,34,17.80
2016,04,09,16,35,17.90
2016,04,09,16,36,17.90
2016,04,09,16,37,17.90
2016,04,09,16,38,17.80
2016,04,09,16,39,17.90
2016,04,09,16,40,17.80
2016,04,09,16,41,17.80
2016,04,09,16,42,17.80
2016,04,09,16,43,17.80
2016,04,09,16,44,17.80
2016,04,09,16,45,17.70
2016,04,09,16,46,17.70
2016,04,09,16,47,17.60
2016,04,09,16,48,17.60
2016,04,09,16,49,17.50
2016,04,09,16,50,17.40
2016,04,09,16,51,17.40
2016,04,09,16,52,17.30
2016,04,09,16,53,17.30
2016,04,09,16,54,17.20
2016,04,09,16,55,17.20
2016,04,09,16,56,17.20
2016,04,09,16,57,17.20
2016,04,09,16,58,17.20
2016,04,09,16,59,17.20
2016,04,09,17,00,17.10
2016,04,09,17,01,17.10
2016,04,09,17,02,17.10
2016,04,09,17,03,17.10
2016,04,09,17,04,17.10
2016,04,09,17,05,17.10
2016,04,09,17,06,17.10
2016,04,09,17,07,17.10
2016,04,09,17,08,17.10
2016,04,09,17,09,17.00
2016,04,09,17,10,17.00
2016,04,09,17,11,16.90
2016,04,09,17,12,16.80
2016,04,09,17,13,16.70
2016,04,09,17,14,16.50
2016,04,09,17,15,16.40
2016,04,09,17,16,16.30
2016,04,09,17,17,16.30
2016,04,09,17,18,16.20
2016,04,09,17,19,16.20
2016,04,09,17,20,16.20
2016,04,09,17,21,16.10
2016,04,09,17,22,16.10
2016,04,09,17,23,16.10
2016,04,09,17,24,16.10
2016,04,09,17,25,16.10
2016,04,09,17,26,16.00
2016,04,09,17,27,16.00
2016,04,09,17,28,16.10
2016,04,09,17,29,16.10
2016,04,09,17,30,16.00
2016,04,09,17,31,16.00
2016,04,09,17,32,15.90
2016,04,09,17,33,15.90
2016,04,09,17,34,15.90
2016,04,09,17,35,15.90
2016,04,09,17,36,15.90
2016,04,09,17,37,15.90
2016,04,09,17,38,15.90
2016,04,09,17,39,15.90
2016,04,09,17,40,16.00
2016,04,09,17,41,16.00
2016,04,09,17,42,16.00